Temperature
18 19 19 20 16 14 16 17 17 18 18 19 19 19 17 17 17 18 21 20 20 19 18 17 15 14 13 12 12 11 11 11 10 10 10 9 9 9 8 8 8 8 8 8 8 9 9 9 9
18 19 19 19 15 15 16 16 17 17 19 19 20 19 19 19 20 21 21 21 20 19 18 17 15 14 13 12 12 12 11 11 10 10 10 9 9 9 8 8 8 8 8 9 9 9 9 9 9
18 19 19 14 15 15 17 18 17 18 19 19 19 19 19 20 21 21 21 20 20 19 18 17 15 14 12 12 11 11 11 11 10 10 9 9 9 9 8 8 8 8 9 9 9 9 9 9 10
19 19 18 14 17 16 17 17 17 17 18 19 19 19 20 20 21 21 20 20 20 19 18 17 15 14 12 12 11 11 11 10 10 10 9 9 9 9 9 9 9 9 9 9 9 9 10 10 10
19 19 15 15 16 16 16 17 17 17 18 18 18 18 20 21 21 21 20 20 20 19 18 17 15 13 12 11 11 11 11 10 10 10 9 9 9 9 9 9 9 9 9 9 9 10 10 10 10
19 17 14 15 16 16 16 18 17 17 17 18 18 18 20 21 21 20 20 19 19 18 18 16 15 13 12 11 11 11 10 10 10 10 9 9 9 9 9 9 9 9 9 9 9 10 9 9 9
19 14 15 16 15 16 17 19 18 18 18 19 19 18 20 21 21 20 19 19 18 18 17 16 15 13 12 11 11 10 10 10 10 9 9 9 9 9 9 9 9 9 9 9 9 9 9 9 9
19 14 16 15 16 16 18 19 19 19 19 20 19 18 20 20 20 20 19 19 18 17 16 16 15 13 11 11 11 10 10 10 10 9 9 9 9 9 8 9 9 9 9 9 9 9 9 9 9
19 14 14 15 16 16 18 18 19 19 19 19 20 20 20 20 19 19 19 19 18 17 16 15 15 13 12 11 10 10 10 9 9 9 9 9 9 9 9 9 9 9 9 9 9 9 9 9 9
18 14 15 15 15 16 18 18 18 18 18 18 19 20 19 19 19 18 19 19 19 18 18 16 15 14 12 11 10 10 10 9 9 9 9 9 10 9 9 9 9 9 9 9 9 9 9 9 9
17 15 15 16 18 17 17 17 18 17 15 18 19 19 19 19 18 18 18 18 19 19 18 17 15 14 13 12 11 10 10 9 9 9 9 10 10 9 9 9 9 9 9 9 9 9 9 9 8
15 15 16 17 18 17 17 17 17 17 18 19 19 18 18 18 18 18 18 18 18 18 18 17 16 14 13 12 11 11 10 10 10 10 10 10 10 10 9 9 9 9 9 9 8 8 8 8 8
15 15 17 17 17 16 16 16 16 17 19 18 18 18 18 18 19 19 18 17 17 17 17 17 16 15 14 13 12 11 11 11 10 10 10 10 10 9 9 9 9 9 8 8 8 8 8 8 8
15 15 16 16 16 15 15 15 14 18 18 19 18 18 18 18 18 18 18 18 18 17 17 17 16 15 14 13 12 12 11 11 10 10 10 9 9 9 9 9 8 8 8 8 8 7 7 7 7
15 14 13 15 16 16 15 15 14 18 18 18 18 17 17 18 18 18 18 18 18 17 17 16 16 15 14 13 13 12 11 11 10 10 9 9 9 9 9 8 8 8 8 7 7 7 7 7 7
15 14 14 15 15 15 16 15 15 16 16 16 17 17 17 17 18 18 18 18 18 17 17 16 15 15 14 13 13 12 11 11 10 10 9 9 9 9 8 8 8 8 7 7 7 7 7 7 7
13 13 14 14 14 15 15 14 14 16 15 15 16 16 17 17 18 18 18 19 18 18 17 16 15 15 14 13 12 12 11 10 10 10 9 9 9 8 8 8 8 8 7 7 7 7 7 7 7
15 14 14 13 14 14 13 12 12 15 14 14 15 16 16 17 17 18 18 18 18 18 17 16 15 15 14 13 12 11 11 10 10 10 9 9 9 8 8 8 8 7 7 7 7 7 6 6 6
14 14 13 12 13 13 12 12 12 13 14 14 15 16 16 16 17 17 18 18 18 17 17 16 15 15 14 13 13 12 11 11 10 10 10 9 9 9 8 8 8 7 7 7 7 6 6 6 6
13 13 12 12 13 13 12 12 12 13 13 13 14 15 16 17 17 17 17 17 17 16 16 15 15 14 14 13 12 11 11 10 10 10 10 9 9 9 8 8 8 7 7 7 6 6 6 5 5
13 12 13 13 12 12 12 14 14 14 14 14 14 15 15 16 16 16 16 16 16 16 15 15 14 14 13 12 11 11 11 10 10 10 10 10 9 9 8 8 8 7 7 6 6 6 5 5 5
13 13 13 13 12 11 12 12 13 13 14 14 14 15 15 15 15 15 16 15 15 15 15 14 14 13 13 12 12 11 11 11 10 10 10 9 9 8 8 8 7 7 6 6 6 6 5 5 4
13 14 13 13 12 11 11 11 12 12 13 13 13 14 14 15 15 15 15 14 14 14 14 14 13 13 12 12 11 11 11 10 10 10 9 9 9 8 8 7 7 7 6 6 6 5 5 5 4
13 12 11 9 9 12 12 11 12 11 12 13 13 14 14 14 14 14 14 14 14 13 13 13 13 12 12 12 11 11 11 10 10 10 9 9 9 8 8 7 7 7 6 6 6 5 5 4 4
13 12 12 13 12 12 12 11 11 12 12 12 12 14 14 14 14 14 13 13 13 13 12 12 12 12 11 11 11 10 10 10 10 9 9 8 8 8 8 7 7 7 6 6 6 5 5 4 4
13 12 12 13 12 11 11 10 11 11 10 12 13 14 14 14 13 13 13 12 12 12 12 11 11 11 11 10 10 10 9 9 9 8 8 8 8 7 7 7 7 6 6 6 5 5 5 4 4
12 11 11 10 11 10 10 10 10 11 11 11 12 13 14 13 13 12 12 12 11 11 11 11 11 10 10 10 9 9 9 8 8 8 7 7 7 7 7 6 6 6 6 6 5 5 5 4 4
12 10 9 10 11 11 11 10 11 13 12 11 11 12 13 13 12 12 12 11 11 11 10 10 10 9 9 9 8 8 8 7 7 7 7 6 6 6 6 6 6 6 5 5 5 4 4 3 3
11 11 10 8 9 10 11 11 11 12 11 10 11 12 12 12 12 11 11 11 10 10 10 9 9 9 8 8 7 7 7 6 6 6 6 6 6 6 6 5 5 5 5 4 4 4 3 3 3
11 10 9 11 10 8 8 10 12 11 11 11 11 11 11 11 11 11 11 10 10 9 9 8 8 8 7 7 6 6 6 6 6 6 5 5 5 5 5 5 4 4 4 3 3 3 2 2 2
Wind_Speed
3 2 3 4 6 5 3 5 4 3 4 3 2 5 7 7 7 5 2 10 8 13 25 26 26 24 22 20 18 16 15 14 12 11 11 10 9 9 9 8 9 9 10 10 11 11 11 12 13
1 1 5 5 5 1 5 5 5 6 4 1 1 2 2 6 5 4 2 9 10 18 25 23 26 24 22 21 19 17 16 14 13 12 11 10 9 9 8 8 8 8 9 9 9 10 10 11 11
2 3 5 5 4 5 5 5 6 4 2 1 1 2 3 5 4 4 5 10 12 18 23 22 27 25 23 21 20 18 17 15 14 13 12 11 10 9 8 8 7 7 7 8 8 8 9 9 10
3 5 6 5 2 5 5 7 5 5 1 1 1 5 5 3 2 2 6 11 12 14 22 22 27 25 24 22 21 19 18 16 15 14 12 11 10 10 9 8 7 7 7 7 7 7 7 8 8
4 5 5 2 4 5 5 6 3 3 2 1 3 4 7 1 2 5 9 12 13 12 19 20 26 25 24 22 21 20 19 17 16 15 13 12 11 10 9 8 7 7 6 6 6 6 6 6 6
5 5 4 3 6 6 6 4 2 3 3 2 4 3 8 1 3 5 9 10 9 11 17 18 25 25 24 23 22 21 19 18 17 16 15 13 12 11 10 9 8 7 6 5 5 4 4 4 4
5 5 3 4 5 6 5 3 3 3 5 6 6 5 7 3 3 7 8 8 8 12 14 15 20 23 24 23 22 21 20 19 18 17 16 14 13 12 11 10 9 8 7 5 4 3 3 3 3
5 5 2 2 4 7 4 2 3 5 8 3 8 8 8 2 5 8 8 7 8 8 11 14 15 19 21 22 22 22 21 20 19 17 16 15 14 13 12 11 10 9 8 6 5 4 3 2 2
4 4 3 5 6 7 4 3 4 2 4 4 6 8 4 5 8 9 6 5 8 10 9 12 12 15 18 19 21 22 21 20 19 18 17 16 13 12 11 11 11 10 9 8 7 6 5 4 3
5 3 8 6 7 6 6 5 5 5 6 6 7 6 3 6 9 11 11 14 16 17 14 11 11 12 15 17 18 18 19 19 19 16 16 15 13 12 9 11 12 11 10 10 9 8 7 5 4
4 7 6 6 6 5 6 6 4 5 10 11 11 9 5 8 9 12 13 13 17 15 15 15 12 13 14 14 15 14 15 16 16 17 16 14 13 12 10 9 10 9 8 7 6 4 4 4 5
4 7 6 6 3 4 5 5 5 8 13 7 7 6 5 10 14 16 17 15 11 10 15 14 12 11 13 14 13 13 13 13 14 16 17 15 12 11 11 10 10 8 7 6 6 5 4 5 7
4 6 5 6 8 6 7 8 7 10 11 8 6 5 7 11 14 14 13 10 10 12 13 13 12 11 12 11 11 13 13 14 15 16 17 18 14 11 12 11 12 11 10 9 8 8 7 8 8
3 5 9 9 7 4 4 4 4 9 6 7 6 7 8 10 12 11 11 12 13 14 13 12 14 12 12 10 9 11 13 14 16 17 19 20 18 15 13 12 12 13 14 13 12 11 10 9 10
3 6 10 5 3 2 2 8 5 7 8 10 10 10 9 8 8 11 13 14 14 11 11 13 13 11 11 10 11 12 14 15 14 16 19 21 20 18 16 13 12 15 17 15 12 11 9 8 8
3 4 6 6 5 4 3 8 6 6 8 9 10 10 10 9 6 8 9 10 10 9 10 12 13 13 13 11 11 11 13 15 15 16 18 20 21 20 17 13 13 17 16 14 10 7 5 6 6
3 3 5 8 4 4 3 9 9 7 7 7 9 10 10 11 10 8 6 6 6 8 9 10 12 13 13 10 9 10 12 13 14 16 17 19 20 21 18 15 15 16 14 12 10 7 6 7 9
3 4 5 7 6 5 5 9 12 8 4 5 7 9 10 11 12 11 7 1 3 5 7 9 10 10 9 7 6 5 6 7 12 15 17 19 20 21 20 16 15 15 9 8 8 9 8 7 8
2 4 7 8 5 4 6 9 10 8 4 5 7 9 11 10 9 10 10 7 4 3 4 6 8 8 7 6 7 6 8 6 6 11 16 19 20 21 20 16 13 13 11 13 12 8 9 8 4
4 5 7 7 3 2 6 8 6 2 2 2 5 8 9 11 13 13 12 9 6 3 0 3 6 7 8 7 5 4 4 4 6 8 14 19 20 21 20 16 11 11 10 11 11 10 6 6 7
5 6 6 6 6 3 5 6 3 2 3 3 4 5 7 8 10 11 11 10 8 6 2 2 4 6 7 6 4 3 2 0 2 6 8 14 19 20 21 19 16 12 12 13 14 14 12 10 8
6 6 6 3 3 5 4 3 5 3 4 2 3 6 7 8 8 8 9 9 9 7 4 2 0 3 4 6 6 7 6 7 8 6 6 8 15 19 21 20 18 13 12 14 15 14 13 12 11
7 1 2 1 3 3 1 2 8 2 5 6 3 2 4 5 7 7 8 7 8 7 6 4 3 2 2 4 6 7 8 9 6 4 6 8 8 14 18 19 16 14 13 15 15 13 14 13 14
4 5 4 5 4 2 2 4 6 4 7 5 5 3 1 3 5 6 6 7 8 8 7 6 5 4 1 2 4 7 9 9 8 8 8 7 6 7 11 15 14 13 13 15 16 15 15 15 16
4 4 4 5 4 4 1 3 8 6 5 6 8 6 3 1 3 5 7 8 8 9 8 7 7 5 3 0 3 6 8 8 9 10 8 8 6 6 10 11 12 13 13 14 13 14 16 17 16
5 6 5 3 4 5 3 5 7 5 5 3 5 6 3 1 1 3 4 5 6 7 7 7 6 5 4 3 3 4 5 5 6 8 7 8 7 9 9 9 11 13 13 14 14 14 16 15 17
6 3 5 5 2 3 6 7 8 1 3 4 5 4 2 1 1 2 4 5 5 6 5 5 5 5 5 5 4 4 4 5 6 7 7 7 8 8 9 9 10 11 12 14 14 13 15 15 16
4 8 5 4 2 4 7 6 5 5 3 3 3 3 3 1 1 2 3 3 4 4 4 5 4 5 5 6 5 4 5 5 6 6 8 8 8 8 9 9 10 10 11 12 13 13 14 15 16
5 4 5 4 4 4 4 7 6 7 6 5 4 3 3 1 1 2 2 3 3 4 4 5 6 6 6 7 6 6 7 6 6 7 8 8 9 9 9 10 10 10 11 11 11 13 13 15 16
6 7 8 5 5 5 4 8 4 3 3 3 3 2 1 1 1 1 2 3 4 5 6 6 6 6 6 6 6 7 7 7 8 8 9 9 9 9 10 10 10 11 11 11 12 14 14 14 16
Wind_Direction
5 48 71 57 54 51 264 254 242 255 246 241 183 169 177 182 178 229 286 156 155 157 173 182 175 175 175 175 173 170 168 165 161 155 149 143 137 129 121 113 103 95 90 85 81 78 76 76 77
81 112 58 61 87 62 273 257 252 239 242 311 101 128 204 243 223 242 208 177 161 161 171 181 176 177 177 177 176 174 172 170 167 163 158 153 146 139 132 124 114 105 98 92 87 83 81 80 80
132 53 81 77 119 189 251 254 253 274 250 177 258 247 231 245 234 243 202 167 156 164 172 181 177 178 179 180 178 177 176 175 173 170 167 164 159 153 145 138 129 118 109 101 95 89 85 84 85
94 49 58 78 208 224 236 273 291 299 307 182 207 284 272 256 261 245 153 158 156 165 173 182 178 180 181 182 181 181 180 180 179 177 175 173 169 164 158 151 142 132 123 114 104 95 90 88 90
61 75 57 13 271 261 258 273 254 230 256 257 176 262 275 253 71 123 148 161 163 164 174 184 181 182 184 185 184 184 184 185 184 183 182 180 177 173 169 164 158 151 142 130 118 107 98 92 94
56 67 80 279 277 282 277 258 194 208 253 253 192 239 262 199 143 156 157 161 162 163 173 184 184 185 187 187 188 187 188 189 188 188 187 187 185 182 180 177 174 169 162 151 140 126 114 105 102
103 102 173 234 278 292 274 201 194 218 251 239 189 206 271 257 172 152 151 148 154 165 173 186 190 188 190 191 191 191 191 193 193 193 193 193 192 191 189 188 187 185 182 176 168 158 145 133 121
119 106 167 250 261 275 269 263 236 213 246 227 164 196 246 299 116 119 123 138 156 171 181 188 194 189 190 192 194 194 195 196 197 197 197 196 197 197 197 195 196 197 197 196 196 195 192 186 176
89 84 241 238 228 259 265 273 274 250 246 241 215 221 239 108 120 120 127 156 175 188 194 193 197 191 186 187 194 196 197 199 200 200 200 199 197 197 201 194 203 207 209 211 214 216 217 216 221
93 170 232 222 208 237 272 263 270 279 269 264 265 253 133 147 160 168 179 186 192 197 197 196 196 191 184 186 191 194 194 197 199 198 198 195 187 189 194 197 208 215 219 222 225 227 228 219 213
161 204 235 243 232 243 271 266 234 222 258 243 248 259 188 182 195 201 202 199 201 197 196 198 196 191 186 185 185 187 187 190 192 192 190 182 180 185 189 196 210 223 228 229 237 249 216 204 214
204 243 238 258 244 234 240 259 256 219 242 258 248 256 198 203 209 212 212 212 201 195 200 198 193 191 191 186 184 183 183 186 186 187 185 177 175 180 183 191 201 211 215 216 222 229 228 229 234
237 269 267 257 271 256 257 254 260 261 274 302 292 268 241 230 226 224 223 218 202 206 202 198 193 193 190 187 186 187 188 188 188 187 187 185 181 184 189 196 204 212 217 218 221 227 233 239 245
275 287 292 284 273 251 251 276 231 276 318 332 332 304 277 254 241 232 225 220 210 210 203 195 197 195 190 192 192 191 191 190 188 190 192 192 191 191 192 199 206 214 218 221 223 227 231 238 243
320 316 315 296 311 295 296 315 240 285 336 340 337 328 315 290 261 238 229 224 218 210 197 195 198 193 194 197 196 193 190 189 192 196 197 197 197 196 197 202 210 217 220 221 224 229 234 242 244
31 5 320 306 338 333 353 297 278 344 353 340 338 339 336 328 302 268 248 233 219 201 190 192 198 197 200 200 198 195 191 194 198 198 199 203 203 202 201 207 217 218 215 213 213 215 220 234 237
15 330 292 303 328 348 347 275 287 342 351 343 344 345 345 349 353 335 293 239 210 194 185 186 194 196 199 197 197 197 195 201 203 202 204 207 208 207 207 215 221 214 209 212 219 212 211 231 239
262 274 281 280 305 333 286 274 297 326 343 347 354 357 359 5 356 347 355 10 162 174 181 185 192 193 185 183 185 194 205 210 209 209 212 210 212 212 213 222 221 208 206 215 217 224 216 226 237
226 247 269 268 285 303 282 288 298 317 353 11 12 7 5 1 351 13 27 43 72 112 171 187 188 184 172 177 190 203 220 216 217 219 219 215 216 214 216 225 220 210 218 224 219 218 224 232 211
222 262 274 289 303 289 302 295 295 321 349 353 7 6 3 2 9 16 24 31 38 41 188 202 197 187 186 191 183 189 195 213 217 221 224 222 220 219 221 224 226 218 223 227 220 211 215 222 189
226 220 244 273 325 7 334 329 327 342 356 10 26 14 12 16 11 9 17 23 25 19 344 237 208 197 193 178 153 127 118 345 231 226 228 227 225 225 225 226 227 223 221 229 226 218 217 229 212
255 234 216 248 329 307 15 304 278 275 304 320 358 9 14 14 17 18 18 18 17 6 4 9 198 190 185 172 176 190 207 227 232 226 230 229 225 228 229 230 229 227 226 230 231 223 221 223 229
217 128 164 202 187 306 341 200 286 278 239 244 257 332 11 20 26 26 21 19 21 18 25 28 49 74 159 181 194 204 228 242 253 246 243 239 229 229 231 231 231 232 231 232 233 228 221 222 229
140 83 67 60 82 317 228 178 279 235 221 222 216 220 2 26 31 27 23 28 27 25 30 33 45 44 67 185 205 217 236 251 264 263 260 257 245 237 234 233 233 235 235 236 235 233 227 228 229
104 81 9 350 6 264 257 208 252 258 248 218 198 195 194 49 38 21 21 21 19 18 19 24 34 28 19 289 235 237 243 250 255 263 264 265 262 253 244 234 235 238 238 239 237 235 234 231 230
167 143 160 232 261 291 308 240 255 286 298 233 173 162 163 141 34 17 22 23 15 12 14 15 18 9 357 337 294 269 257 253 258 262 261 262 262 262 257 241 238 239 240 241 239 238 238 236 234
135 162 156 135 170 274 287 291 305 1 46 89 125 142 190 233 309 2 18 24 13 4 1 358 356 349 343 334 320 309 293 272 271 276 269 265 265 270 266 257 250 247 245 244 242 242 240 239 237
143 141 109 130 181 275 295 282 255 239 192 164 170 205 245 270 338 9 16 8 360 351 341 345 346 334 328 333 328 318 310 297 286 285 283 278 276 274 275 271 263 258 254 249 245 246 245 243 242
130 136 126 124 159 177 271 276 229 216 200 193 215 241 256 265 328 9 1 350 345 341 340 339 339 338 334 334 330 326 317 309 302 291 284 282 282 281 278 274 271 267 264 257 252 250 247 246 247
177 176 153 165 214 185 200 267 280 214 190 184 221 250 326 76 78 45 13 356 347 339 334 333 332 330 323 323 322 315 308 306 301 293 288 285 282 281 277 276 274 272 269 263 257 259 255 251 251
Height
1534 1535 1537 1539 1544 1555 1555 1548 1543 1541 1540 1538 1538 1538 1539 1540 1543 1544 1537 1535 1536 1538 1540 1542 1544 1547 1549 1552 1554 1556 1558 1559 1560 1561 1562 1562 1563 1563 1563 1564 1564 1564 1563 1563 1563 1563 1562 1562 1562
1534 1536 1539 1540 1551 1562 1557 1546 1543 1539 1538 1537 1537 1537 1537 1536 1535 1535 1534 1534 1535 1537 1539 1541 1543 1546 1549 1551 1554 1556 1557 1559 1560 1561 1562 1563 1563 1564 1564 1564 1564 1564 1564 1564 1563 1563 1563 1563 1563
1535 1537 1539 1543 1553 1559 1551 1541 1539 1537 1536 1537 1537 1537 1536 1535 1534 1533 1534 1534 1535 1536 1538 1540 1543 1545 1548 1551 1553 1555 1557 1558 1560 1561 1562 1563 1563 1564 1564 1564 1564 1564 1564 1564 1564 1564 1564 1564 1564
1536 1538 1540 1548 1550 1548 1544 1539 1537 1536 1536 1536 1537 1536 1535 1534 1533 1533 1533 1533 1534 1535 1537 1540 1542 1544 1547 1550 1552 1554 1556 1558 1559 1561 1562 1563 1563 1564 1564 1564 1564 1565 1565 1565 1565 1565 1565 1565 1565
1537 1538 1545 1552 1549 1544 1540 1537 1536 1536 1535 1535 1536 1535 1534 1533 1532 1532 1532 1532 1533 1535 1536 1539 1541 1544 1546 1549 1551 1554 1555 1557 1559 1560 1561 1562 1563 1564 1564 1564 1565 1565 1565 1565 1565 1565 1565 1565 1566
1538 1539 1553 1556 1549 1543 1539 1536 1535 1535 1535 1534 1535 1534 1532 1531 1530 1530 1531 1531 1533 1534 1535 1538 1540 1543 1545 1548 1550 1552 1554 1556 1558 1559 1561 1562 1563 1564 1564 1564 1565 1565 1565 1565 1566 1566 1566 1566 1566
1539 1544 1550 1549 1549 1544 1537 1535 1534 1534 1533 1533 1533 1532 1529 1529 1528 1528 1529 1530 1531 1532 1534 1536 1538 1541 1544 1546 1549 1551 1553 1555 1557 1559 1560 1561 1562 1563 1564 1564 1564 1565 1565 1565 1566 1566 1566 1566 1566
1538 1543 1547 1549 1547 1543 1535 1534 1533 1533 1531 1531 1531 1529 1527 1527 1526 1526 1526 1527 1529 1530 1532 1534 1536 1538 1541 1544 1547 1549 1552 1554 1556 1557 1559 1560 1561 1562 1563 1564 1564 1565 1565 1565 1565 1566 1566 1566 1566
1538 1546 1550 1547 1544 1539 1533 1533 1532 1531 1530 1528 1527 1526 1525 1524 1523 1523 1523 1524 1525 1527 1529 1531 1533 1535 1538 1541 1544 1547 1549 1552 1554 1556 1557 1559 1560 1561 1562 1563 1564 1564 1564 1565 1565 1565 1565 1565 1565
1537 1547 1543 1538 1536 1534 1531 1531 1530 1529 1527 1524 1523 1522 1521 1520 1519 1519 1519 1520 1521 1523 1525 1527 1530 1532 1535 1538 1541 1544 1546 1549 1551 1553 1555 1556 1558 1560 1561 1562 1562 1563 1563 1564 1564 1564 1564 1564 1564
1536 1539 1535 1532 1531 1531 1530 1528 1527 1526 1523 1520 1519 1518 1517 1515 1515 1514 1515 1516 1518 1520 1522 1524 1526 1529 1532 1535 1538 1540 1543 1546 1548 1550 1552 1554 1556 1557 1559 1560 1561 1562 1562 1563 1563 1563 1563 1563 1563
1535 1533 1531 1530 1529 1529 1527 1525 1524 1521 1517 1517 1516 1514 1512 1511 1510 1510 1510 1512 1515 1516 1519 1521 1524 1526 1529 1532 1535 1537 1540 1542 1545 1547 1549 1551 1553 1555 1556 1558 1559 1560 1560 1561 1561 1561 1561 1561 1561
1534 1531 1529 1527 1527 1525 1524 1522 1521 1515 1514 1513 1512 1510 1508 1506 1505 1505 1507 1509 1511 1513 1515 1518 1521 1523 1526 1528 1531 1534 1536 1539 1542 1544 1546 1548 1550 1552 1554 1555 1556 1557 1558 1558 1559 1559 1559 1559 1558
1532 1530 1528 1525 1523 1522 1521 1519 1519 1512 1512 1510 1509 1506 1504 1502 1501 1501 1502 1503 1505 1508 1512 1515 1518 1520 1523 1525 1528 1530 1533 1536 1539 1541 1543 1545 1547 1549 1551 1552 1553 1554 1555 1555 1556 1556 1555 1555 1555
1531 1531 1526 1522 1521 1521 1521 1519 1516 1512 1511 1508 1506 1503 1501 1498 1496 1496 1497 1499 1501 1504 1508 1511 1514 1517 1520 1522 1525 1527 1530 1533 1535 1537 1540 1542 1543 1545 1547 1548 1549 1550 1551 1551 1551 1551 1551 1550 1550
1531 1534 1533 1524 1522 1520 1523 1524 1513 1512 1509 1507 1505 1502 1499 1497 1494 1493 1494 1495 1498 1501 1504 1507 1510 1513 1516 1519 1521 1524 1526 1529 1531 1533 1536 1537 1539 1541 1542 1543 1544 1546 1546 1546 1546 1546 1545 1545 1544
1536 1539 1535 1529 1522 1521 1522 1521 1511 1511 1509 1507 1505 1503 1500 1497 1494 1493 1493 1494 1496 1498 1501 1503 1506 1509 1512 1515 1518 1520 1523 1525 1527 1529 1531 1533 1535 1536 1537 1537 1539 1540 1540 1540 1540 1540 1539 1538 1538
1537 1536 1535 1533 1525 1523 1523 1521 1512 1510 1509 1508 1506 1504 1501 1498 1497 1495 1494 1494 1495 1497 1499 1501 1503 1506 1509 1511 1514 1516 1518 1520 1522 1524 1526 1527 1529 1530 1531 1532 1532 1533 1533 1533 1533 1533 1533 1532 1532
1532 1534 1537 1532 1525 1525 1523 1521 1515 1511 1509 1508 1507 1505 1503 1502 1501 1499 1497 1497 1497 1498 1499 1500 1502 1504 1506 1508 1510 1512 1514 1516 1517 1519 1520 1522 1523 1524 1524 1525 1525 1525 1525 1525 1526 1526 1525 1524 1525
1533 1535 1535 1530 1525 1525 1524 1521 1514 1511 1510 1510 1509 1507 1506 1504 1503 1501 1501 1500 1499 1499 1500 1500 1501 1502 1504 1506 1507 1509 1511 1512 1513 1515 1515 1516 1517 1517 1517 1517 1517 1517 1517 1517 1517 1517 1516 1515 1516
1532 1534 1531 1529 1526 1525 1525 1519 1514 1512 1511 1511 1510 1509 1508 1507 1506 1505 1504 1503 1502 1502 1501 1501 1502 1502 1503 1504 1505 1506 1507 1508 1509 1509 1510 1510 1511 1510 1510 1509 1509 1508 1508 1507 1507 1507 1506 1505 1506
1531 1525 1527 1527 1531 1533 1530 1533 1518 1514 1512 1511 1511 1510 1509 1509 1508 1507 1506 1506 1505 1504 1503 1503 1502 1502 1503 1503 1504 1504 1504 1504 1505 1505 1505 1505 1504 1503 1503 1502 1501 1499 1498 1497 1497 1497 1496 1496 1494
1523 1521 1524 1526 1530 1534 1533 1534 1524 1516 1514 1512 1511 1511 1510 1510 1510 1509 1509 1508 1507 1506 1505 1504 1504 1503 1503 1503 1503 1503 1502 1502 1501 1501 1499 1498 1498 1496 1495 1494 1492 1491 1489 1488 1487 1487 1485 1484 1484
1520 1524 1529 1534 1537 1536 1529 1534 1525 1518 1511 1510 1509 1510 1510 1511 1511 1510 1510 1510 1509 1508 1507 1506 1505 1504 1503 1503 1502 1501 1500 1499 1498 1496 1495 1493 1492 1490 1488 1486 1484 1482 1481 1479 1478 1477 1475 1474 1472
1521 1529 1537 1533 1538 1535 1529 1532 1524 1509 1507 1507 1507 1508 1510 1511 1511 1511 1511 1510 1510 1509 1508 1507 1506 1505 1504 1502 1501 1500 1498 1496 1494 1492 1490 1488 1486 1484 1482 1479 1477 1475 1473 1471 1469 1467 1465 1464 1461
1521 1526 1536 1538 1540 1538 1530 1531 1516 1507 1504 1503 1505 1507 1509 1510 1511 1511 1511 1510 1510 1509 1508 1507 1506 1505 1503 1501 1499 1498 1495 1493 1490 1488 1485 1482 1480 1477 1475 1472 1469 1467 1464 1462 1460 1457 1455 1453 1451
1522 1526 1527 1538 1539 1542 1534 1526 1513 1505 1504 1504 1504 1506 1508 1509 1510 1510 1510 1510 1509 1509 1508 1507 1505 1503 1501 1499 1497 1494 1492 1489 1486 1483 1480 1477 1474 1471 1468 1465 1462 1459 1456 1453 1450 1446 1444 1442 1440
1517 1523 1533 1537 1538 1539 1534 1528 1519 1506 1505 1505 1505 1506 1507 1508 1508 1509 1509 1509 1509 1508 1507 1505 1503 1501 1498 1496 1493 1490 1487 1484 1481 1478 1474 1471 1468 1464 1461 1457 1454 1450 1447 1444 1440 1436 1433 1431 1428
1521 1523 1527 1536 1537 1540 1538 1526 1507 1503 1502 1504 1504 1504 1505 1506 1506 1507 1507 1508 1507 1506 1505 1503 1500 1497 1495 1492 1489 1486 1482 1479 1476 1472 1469 1465 1461 1457 1453 1449 1445 1441 1437 1434 1430 1426 1423 1419 1416
1514 1518 1525 1530 1533 1539 1540 1525 1500 1500 1500 1501 1503 1503 1504 1504 1505 1506 1506 1506 1505 1504 1502 1499 1496 1493 1490 1487 1484 1480 1477 1474 1470 1466 1462 1458 1453 1449 1444 1440 1435 1431 1427 1424 1420 1416 1412 1409 1405